Location: Bamazo
(6.7448°N, 10.8189°W)
Time: 01:24:33
(UTC+00:00)

Cosmos 1125 Rocket - Pass Details

Date: 18 September 2020
Orbit: 757 x 780 km, 74.0° (Epoch: 21 October)

Event Time Altitude Azimuth Distance (km) Brightness Sun altitude
Rises 20:26:06 0° 203° (SSW) 3,233 7.0 -26.8°
Reaches altitude 10° 20:28:32 10° 209° (SSW) 2,309 6.2 -27.4°
Maximum altitude 20:33:35 49° 283° (WNW) 989 4.3 -28.7°
Drops below altitude 10° 20:38:40 10° 357° (N) 2,318 6.0 -29.9°
Sets 20:41:08 0° 3° (N) 3,246 6.8 -30.6°
